Time,TemperatureF,DewpointF,PressureIn,WindDirection,WindDirectionDegrees,WindSpeedMPH,WindSpeedGustMPH,Humidity,HourlyPrecipIn,Conditions,Clouds,dailyrainin,SoftwareType,DateUTC
2013-02-08 00:01:00,34.0,8.0,-100.00,SSW,205,17.0,23.0,33,-99.99,,,-99.99,,2013-02-08 00:01:00,
2013-02-08 00:11:00,34.0,8.0,-100.00,SW,215,17.0,21.0,33,-99.99,,,-99.99,,2013-02-08 00:11:00,
2013-02-08 00:21:00,33.0,8.0,-100.00,SSW,210,16.0,19.0,34,-99.99,,,-99.99,,2013-02-08 00:21:00,
2013-02-08 00:31:00,32.0,7.0,-100.00,SSW,195,11.0,17.0,34,-99.99,,,-99.99,,2013-02-08 00:31:00,
2013-02-08 00:41:00,31.0,7.0,-100.00,SSW,205,15.0,19.0,35,-99.99,,,-99.99,,2013-02-08 00:41:00,
2013-02-08 00:52:00,30.0,7.0,-100.00,SSW,205,15.0,18.0,36,-99.99,,,-99.99,,2013-02-08 00:52:00,
2013-02-08 01:01:00,29.0,7.0,-100.00,South,185,12.0,16.0,37,-99.99,,,-99.99,,2013-02-08 01:01:00,
2013-02-08 01:11:00,28.0,6.0,-100.00,SSE,150,9.0,16.0,38,-99.99,,,-99.99,,2013-02-08 01:11:00,
2013-02-08 01:21:00,28.0,8.0,-100.00,SE,135,13.0,17.0,41,-99.99,,,-99.99,,2013-02-08 01:21:00,
2013-02-08 01:31:00,29.0,8.0,-100.00,SE,145,12.0,22.0,41,-99.99,,,-99.99,,2013-02-08 01:31:00,
2013-02-08 01:41:00,29.0,9.0,-100.00,ESE,115,17.0,21.0,42,-99.99,,,-99.99,,2013-02-08 01:41:00,
2013-02-08 01:51:00,29.0,9.0,-100.00,ESE,115,14.0,24.0,43,-99.99,,,-99.99,,2013-02-08 01:51:00,
2013-02-08 02:01:00,28.0,9.0,-100.00,SE,130,15.0,21.0,46,-99.99,,,-99.99,,2013-02-08 02:01:00,
2013-02-08 02:11:00,27.0,10.0,-100.00,ESE,115,15.0,22.0,47,-99.99,,,-99.99,,2013-02-08 02:11:00,
2013-02-08 02:21:00,27.0,10.0,-100.00,ESE,115,15.0,22.0,47,-99.99,,,-99.99,,2013-02-08 02:21:00,
2013-02-08 02:31:00,26.0,9.0,-100.00,SE,135,11.0,17.0,49,-99.99,,,-99.99,,2013-02-08 02:31:00,
2013-02-08 02:42:00,26.0,10.0,-100.00,SSE,155,11.0,17.0,50,-99.99,,,-99.99,,2013-02-08 02:42:00,
2013-02-08 02:52:00,26.0,10.0,-100.00,South,180,16.0,21.0,50,-99.99,,,-99.99,,2013-02-08 02:52:00,
2013-02-08 03:01:00,24.0,9.0,-100.00,SE,130,13.0,20.0,52,-99.99,,,-99.99,,2013-02-08 03:01:00,
2013-02-08 03:11:00,24.0,9.0,-100.00,SE,130,13.0,16.0,52,-99.99,,,-99.99,,2013-02-08 03:11:00,
2013-02-08 03:22:00,24.0,10.0,-100.00,SE,130,14.0,19.0,53,-99.99,,,-99.99,,2013-02-08 03:22:00,
2013-02-08 03:31:00,25.0,10.0,-100.00,SE,125,14.0,23.0,53,-99.99,,,-99.99,,2013-02-08 03:31:00,
2013-02-08 03:41:00,25.0,10.0,-100.00,SE,125,16.0,23.0,53,-99.99,,,-99.99,,2013-02-08 03:41:00,
2013-02-08 03:51:00,25.0,10.0,-100.00,SE,140,16.0,24.0,53,-99.99,,,-99.99,,2013-02-08 03:51:00,
2013-02-08 04:01:00,24.0,10.0,-100.00,SSE,150,19.0,27.0,54,-99.99,,,-99.99,,2013-02-08 04:01:00,
2013-02-08 04:11:00,24.0,10.0,-100.00,SE,145,17.0,25.0,53,-99.99,,,-99.99,,2013-02-08 04:11:00,
2013-02-08 04:21:00,24.0,10.0,-100.00,SSE,160,14.0,20.0,54,-99.99,,,-99.99,,2013-02-08 04:21:00,
2013-02-08 04:31:00,24.0,10.0,-100.00,SE,140,13.0,26.0,54,-99.99,,,-99.99,,2013-02-08 04:31:00,
2013-02-08 04:41:00,24.0,9.0,-100.00,ESE,120,16.0,20.0,54,-99.99,,,-99.99,,2013-02-08 04:41:00,
2013-02-08 04:51:00,24.0,9.0,-100.00,East,100,14.0,23.0,54,-99.99,,,-99.99,,2013-02-08 04:51:00,
2013-02-08 05:01:00,23.0,9.0,-100.00,SE,125,18.0,22.0,55,-99.99,,,-99.99,,2013-02-08 05:01:00,
2013-02-08 05:11:00,23.0,9.0,-100.00,ESE,110,17.0,22.0,55,-99.99,,,-99.99,,2013-02-08 05:11:00,
2013-02-08 05:21:00,22.0,9.0,-100.00,East,100,17.0,23.0,56,-99.99,,,-99.99,,2013-02-08 05:21:00,
2013-02-08 05:31:00,22.0,9.0,-100.00,East,95,17.0,24.0,57,-99.99,,,-99.99,,2013-02-08 05:31:00,
2013-02-08 05:41:00,22.0,9.0,-100.00,East,85,17.0,26.0,56,-99.99,,,-99.99,,2013-02-08 05:41:00,
2013-02-08 05:52:00,23.0,9.0,-100.00,ESE,115,15.0,22.0,54,-99.99,,,-99.99,,2013-02-08 05:52:00,
2013-02-08 06:01:00,23.0,9.0,-100.00,SE,125,11.0,20.0,54,-99.99,,,-99.99,,2013-02-08 06:01:00,
2013-02-08 06:11:00,22.0,9.0,-100.00,ESE,115,10.0,19.0,55,-99.99,,,-99.99,,2013-02-08 06:11:00,
2013-02-08 06:21:00,22.0,9.0,-100.00,East,100,14.0,17.0,54,-99.99,,,-99.99,,2013-02-08 06:21:00,
2013-02-08 06:31:00,23.0,8.0,-100.00,ESE,120,14.0,24.0,53,-99.99,,,-99.99,,2013-02-08 06:31:00,
2013-02-08 06:51:00,23.0,8.0,-100.00,SE,125,15.0,24.0,51,-99.99,,,-99.99,,2013-02-08 06:51:00,
2013-02-08 07:01:00,23.0,8.0,-100.00,ESE,110,18.0,24.0,52,-99.99,,,-99.99,,2013-02-08 07:01:00,
2013-02-08 07:11:00,23.0,8.0,-100.00,SE,130,12.0,23.0,51,-99.99,,,-99.99,,2013-02-08 07:11:00,
2013-02-08 07:21:00,23.0,8.0,-100.00,SE,130,16.0,20.0,51,-99.99,,,-99.99,,2013-02-08 07:21:00,
2013-02-08 07:31:00,22.0,8.0,-100.00,ESE,110,14.0,20.0,52,-99.99,,,-99.99,,2013-02-08 07:31:00,
2013-02-08 07:41:00,21.0,7.0,-100.00,SE,130,12.0,17.0,54,-99.99,,,-99.99,,2013-02-08 07:41:00,
2013-02-08 07:51:00,20.0,7.0,-100.00,SE,125,12.0,16.0,56,-99.99,,,-99.99,,2013-02-08 07:51:00,
2013-02-08 08:01:00,19.0,7.0,-100.00,ESE,115,14.0,17.0,56,-99.99,,,-99.99,,2013-02-08 08:01:00,
2013-02-08 08:11:00,19.0,7.0,-100.00,ESE,105,13.0,17.0,57,-99.99,,,-99.99,,2013-02-08 08:11:00,
2013-02-08 08:21:00,19.0,7.0,-100.00,East,100,12.0,17.0,57,-99.99,,,-99.99,,2013-02-08 08:21:00,
2013-02-08 08:32:00,19.0,7.0,-100.00,SE,125,11.0,19.0,57,-99.99,,,-99.99,,2013-02-08 08:32:00,
2013-02-08 08:41:00,19.0,6.0,-100.00,SE,130,12.0,16.0,57,-99.99,,,-99.99,,2013-02-08 08:41:00,
2013-02-08 08:52:00,18.0,6.0,-100.00,SE,125,11.0,13.0,58,-99.99,,,-99.99,,2013-02-08 08:52:00,
2013-02-08 09:02:00,18.0,6.0,-100.00,ESE,115,11.0,14.0,58,-99.99,,,-99.99,,2013-02-08 09:02:00,
2013-02-08 09:21:00,20.0,7.0,-100.00,SSE,155,9.0,15.0,56,-99.99,,,-99.99,,2013-02-08 09:21:00,
2013-02-08 09:31:00,20.0,7.0,-100.00,South,170,12.0,17.0,56,-99.99,,,-99.99,,2013-02-08 09:31:00,
2013-02-08 09:41:00,20.0,7.0,-100.00,South,170,12.0,17.0,56,-99.99,,,-99.99,,2013-02-08 09:41:00,
2013-02-08 09:51:00,20.0,7.0,-100.00,South,175,12.0,17.0,57,-99.99,,,-99.99,,2013-02-08 09:51:00,
2013-02-08 10:01:00,20.0,7.0,-100.00,South,185,15.0,19.0,57,-99.99,,,-99.99,,2013-02-08 10:01:00,
2013-02-08 10:11:00,20.0,7.0,-100.00,South,185,15.0,19.0,57,-99.99,,,-99.99,,2013-02-08 10:11:00,
2013-02-08 10:21:00,20.0,7.0,-100.00,South,185,15.0,19.0,57,-99.99,,,-99.99,,2013-02-08 10:21:00,
2013-02-08 10:31:00,20.0,7.0,-100.00,South,185,15.0,19.0,57,-99.99,,,-99.99,,2013-02-08 10:31:00,
2013-02-08 14:52:00,15.0,6.0,-100.00,South,175,15.0,19.0,66,-99.99,,,-99.99,,2013-02-08 14:52:00,
2013-02-08 15:02:00,17.0,7.0,-100.00,South,180,15.0,18.0,65,-99.99,,,-99.99,,2013-02-08 15:02:00,
2013-02-08 15:11:00,17.0,7.0,-100.00,South,180,15.0,18.0,64,-99.99,,,-99.99,,2013-02-08 15:11:00,
2013-02-08 15:21:00,18.0,8.0,-100.00,SSW,195,18.0,22.0,63,-99.99,,,-99.99,,2013-02-08 15:21:00,
2013-02-08 15:31:00,20.0,9.0,-100.00,South,190,19.0,24.0,61,-99.99,,,-99.99,,2013-02-08 15:31:00,
2013-02-08 15:41:00,21.0,9.0,-100.00,South,190,18.0,24.0,60,-99.99,,,-99.99,,2013-02-08 15:41:00,
2013-02-08 15:51:00,21.0,9.0,-100.00,SSW,195,17.0,24.0,58,-99.99,,,-99.99,,2013-02-08 15:51:00,
2013-02-08 16:01:00,23.0,10.0,-100.00,SSW,195,17.0,21.0,57,-99.99,,,-99.99,,2013-02-08 16:01:00,
2013-02-08 16:11:00,23.0,10.0,-100.00,South,185,16.0,21.0,57,-99.99,,,-99.99,,2013-02-08 16:11:00,
2013-02-08 16:21:00,25.0,11.0,-100.00,South,185,15.0,21.0,55,-99.99,,,-99.99,,2013-02-08 16:21:00,
2013-02-08 16:32:00,25.0,11.0,-100.00,South,170,17.0,20.0,54,-99.99,,,-99.99,,2013-02-08 16:32:00,
2013-02-08 16:41:00,26.0,12.0,-100.00,SSE,160,13.0,20.0,53,-99.99,,,-99.99,,2013-02-08 16:41:00,
2013-02-08 16:51:00,27.0,12.0,-100.00,SSE,160,15.0,17.0,52,-99.99,,,-99.99,,2013-02-08 16:51:00,
2013-02-08 17:02:00,29.0,13.0,-100.00,SE,125,10.0,15.0,51,-99.99,,,-99.99,,2013-02-08 17:02:00,
2013-02-08 17:11:00,30.0,13.0,-100.00,ESE,120,5.0,12.0,48,-99.99,,,-99.99,,2013-02-08 17:11:00,
2013-02-08 17:21:00,30.0,13.0,-100.00,South,175,16.0,17.0,47,-99.99,,,-99.99,,2013-02-08 17:21:00,
2013-02-08 17:32:00,31.0,13.0,-100.00,South,170,11.0,18.0,46,-99.99,,,-99.99,,2013-02-08 17:32:00,
2013-02-08 17:41:00,32.0,14.0,-100.00,SSE,160,8.0,12.0,46,-99.99,,,-99.99,,2013-02-08 17:41:00,
2013-02-08 17:52:00,33.0,14.0,-100.00,SSE,165,9.0,16.0,44,-99.99,,,-99.99,,2013-02-08 17:52:00,
2013-02-08 18:01:00,33.0,13.0,-100.00,SSE,155,10.0,15.0,43,-99.99,,,-99.99,,2013-02-08 18:01:00,
2013-02-08 18:11:00,34.0,14.0,-100.00,SSW,195,8.0,15.0,43,-99.99,,,-99.99,,2013-02-08 18:11:00,
2013-02-08 18:23:00,35.0,14.0,-100.00,SE,140,7.0,11.0,41,-99.99,,,-99.99,,2013-02-08 18:23:00,
2013-02-08 18:32:00,35.0,13.0,-100.00,South,180,9.0,13.0,41,-99.99,,,-99.99,,2013-02-08 18:32:00,
2013-02-08 18:41:00,35.0,14.0,-100.00,SSW,200,8.0,12.0,41,-99.99,,,-99.99,,2013-02-08 18:41:00,
2013-02-08 18:52:00,34.0,13.0,-100.00,SSW,195,11.0,15.0,41,-99.99,,,-99.99,,2013-02-08 18:52:00,
2013-02-08 19:01:00,34.0,13.0,-100.00,SSW,205,8.0,14.0,41,-99.99,,,-99.99,,2013-02-08 19:01:00,
2013-02-08 19:11:00,35.0,14.0,-100.00,SSW,205,8.0,14.0,41,-99.99,,,-99.99,,2013-02-08 19:11:00,
2013-02-08 19:21:00,35.0,15.0,-100.00,SSW,200,9.0,12.0,43,-99.99,,,-99.99,,2013-02-08 19:21:00,
2013-02-08 19:32:00,34.0,15.0,-100.00,SSW,195,11.0,12.0,44,-99.99,,,-99.99,,2013-02-08 19:32:00,
2013-02-08 19:41:00,33.0,14.0,-100.00,South,180,12.0,16.0,46,-99.99,,,-99.99,,2013-02-08 19:41:00,
2013-02-08 19:51:00,31.0,16.0,-100.00,South,190,16.0,20.0,53,-99.99,,,-99.99,,2013-02-08 19:51:00,
2013-02-08 20:01:00,29.0,19.0,-100.00,South,185,8.0,17.0,68,-99.99,,,-99.99,,2013-02-08 20:01:00,
2013-02-08 20:11:00,28.0,21.0,-100.00,SSW,195,6.0,14.0,73,-99.99,,,-99.99,,2013-02-08 20:11:00,
2013-02-08 20:21:00,32.0,25.0,-100.00,NW,310,1.0,3.0,75,-99.99,,,-99.99,,2013-02-08 20:21:00,
2013-02-08 20:31:00,34.0,24.0,-100.00,NW,315,3.0,4.0,67,-99.99,,,-99.99,,2013-02-08 20:31:00,
2013-02-08 20:41:00,34.0,24.0,-100.00,WNW,300,1.0,4.0,64,-99.99,,,-99.99,,2013-02-08 20:41:00,
2013-02-08 20:52:00,36.0,24.0,-100.00,WNW,295,2.0,4.0,60,-99.99,,,-99.99,,2013-02-08 20:52:00,
2013-02-08 21:01:00,31.0,23.0,-100.00,North,355,6.0,9.0,72,-99.99,,,-99.99,,2013-02-08 21:01:00,
2013-02-08 21:11:00,30.0,24.0,-100.00,NNW,340,5.0,9.0,75,-99.99,,,-99.99,,2013-02-08 21:11:00,
2013-02-08 21:21:00,29.0,24.0,-100.00,North,355,6.0,9.0,81,-99.99,,,-99.99,,2013-02-08 21:21:00,
2013-02-08 21:32:00,30.0,25.0,-100.00,North,10,4.0,7.0,82,-99.99,,,-99.99,,2013-02-08 21:32:00,
2013-02-08 21:41:00,29.0,25.0,-100.00,North,355,4.0,9.0,83,-99.99,,,-99.99,,2013-02-08 21:41:00,
2013-02-08 21:52:00,30.0,25.0,-100.00,NW,320,4.0,6.0,82,-99.99,,,-99.99,,2013-02-08 21:52:00,
2013-02-08 22:01:00,30.0,26.0,-100.00,NNW,345,7.0,9.0,83,-99.99,,,-99.99,,2013-02-08 22:01:00,
2013-02-08 22:11:00,29.0,25.0,-100.00,North,350,9.0,11.0,83,-99.99,,,-99.99,,2013-02-08 22:11:00,
2013-02-08 22:21:00,29.0,26.0,-100.00,NNW,345,7.0,12.0,85,-99.99,,,-99.99,,2013-02-08 22:21:00,
2013-02-08 22:31:00,29.0,25.0,-100.00,NNW,335,10.0,11.0,83,-99.99,,,-99.99,,2013-02-08 22:31:00,
2013-02-08 22:41:00,29.0,24.0,-100.00,NW,325,11.0,14.0,81,-99.99,,,-99.99,,2013-02-08 22:41:00,
2013-02-08 22:51:00,28.0,22.0,-100.00,NNW,335,13.0,18.0,80,-99.99,,,-99.99,,2013-02-08 22:51:00,
2013-02-08 23:01:00,27.0,23.0,-100.00,NNW,335,11.0,13.0,83,-99.99,,,-99.99,,2013-02-08 23:01:00,
2013-02-08 23:11:00,27.0,23.0,-100.00,North,350,10.0,13.0,84,-99.99,,,-99.99,,2013-02-08 23:11:00,
2013-02-08 23:21:00,27.0,24.0,-100.00,NNW,330,9.0,11.0,87,-99.99,,,-99.99,,2013-02-08 23:21:00,
2013-02-08 23:31:00,27.0,24.0,-100.00,NNW,340,8.0,12.0,88,-99.99,,,-99.99,,2013-02-08 23:31:00,
2013-02-08 23:41:00,27.0,24.0,-100.00,NNW,330,7.0,9.0,88,-99.99,,,-99.99,,2013-02-08 23:41:00,
2013-02-08 23:52:00,25.0,22.0,-100.00,NNW,335,9.0,13.0,88,-99.99,,,-99.99,,2013-02-08 23:52:00,